[[{"header":{"parameterUnit":"m.s-1","parameterCategory":1,"la1":30.2991,"la2":30.254,"lo1":-89.0895,"lo2":-89.0444,"dy":0.0017,"dx":0.0017,"nx":28,"ny":28,"refTime":"2023-09-30T21:00:00:Z","depth":0,"parameterNumber":2,"parameterNumberName":"U-component_of_WINDS"},"data":[0,0,0,0,0,0,0,0,0,0,0,0,0,0,0,0,0,0,0,0,0,0,0,0,0,0,0,0,0,0,0,0,0,0,0,0,0,0,0,0,0,0,0,0,0,0,0,0,0,0,0,0,0,0,0,0,0,0,-3.9554,-3.9554,0,-3.9563,-3.9563,-3.9563,-3.9479,-3.9477,-3.9474,-3.9472,-3.9482,-3.9484,-3.9487,0,0,0,0,0,0,0,0,0,0,0,0,0,-3.9464,-3.9467,-3.9554,-3.9554,-3.9554,-3.9563,-3.9563,-3.9563,-3.9479,-3.9476,-3.9474,-3.9471,-3.9481,-3.9484,-3.9487,0,0,0,0,0,0,0,0,0,0,0,0,0,-3.9492,-3.9467,-3.9554,-3.9513,-3.951,-3.9563,-3.9563,-3.9563,-3.948,-3.9476,-3.9473,-3.947,-3.948,-3.9484,-3.9487,-3.958,0,0,-3.9498,-3.95,0,0,0,0,0,0,0,0,-3.949,-3.9495,-3.9519,-3.9516,-3.9512,-3.9516,-3.9535,-3.9569,-3.9481,-3.9491,-3.9472,-3.9468,-3.9496,-3.9498,-3.9508,-3.958,-3.9581,-3.9499,-3.9501,-3.9503,-3.9504,0,0,0,0,0,0,0,-3.9488,-3.9494,-3.9557,-3.952,-3.9515,-3.9495,-3.9495,-3.9541,-3.9513,-3.949,-3.9484,-3.9486,-3.9494,-3.9504,-3.9507,-3.9581,-3.9499,-3.9502,-3.9504,-3.9506,-3.9732,-3.9736,0,0,0,0,0,0,-3.9492,-3.9493,-3.9557,-3.9558,-3.9492,-3.9499,-3.9499,-3.9518,-3.9512,-3.9508,-3.9489,-3.9482,-3.95,-3.9503,-3.9507,-3.9617,-3.9502,-3.9506,-3.9508,-3.9728,-3.9733,-3.9737,0,0,0,0,0,0,-3.949,-3.9498,-3.9557,-3.9524,-3.953,-3.9505,-3.9527,-3.9521,-3.9531,-3.9512,-3.9506,-3.9505,-3.9497,-3.9502,-3.9563,-3.9616,-3.9508,-3.9511,-3.9724,-3.973,-3.9735,-3.9837,0,0,0,0,0,0,-3.9488,-3.9498,-3.9533,-3.9525,-3.9532,-3.9612,-3.953,-3.9523,-3.9538,-3.9529,-3.9525,-3.9522,-3.9495,-3.9558,-3.9567,-3.9619,-3.9514,-3.9719,-3.9726,-3.9733,-3.9828,-3.9845,-3.9859,0,0,0,0,0,-3.9485,-3.9561,-3.9535,-3.9543,-3.9575,-3.9615,-3.9619,-3.9587,-3.9542,-3.9577,-3.9565,-3.9522,-3.9609,-3.9565,-3.9574,-3.9629,-3.9716,-3.9724,-3.9733,-3.9821,-3.9842,-3.9859,0,0,0,0,0,0,-3.9575,-3.9559,-3.953,-3.9606,-3.9613,-3.9601,-3.9644,-3.9609,-3.9629,-3.962,-3.9578,-3.9578,-3.9647,-3.9643,-3.9595,-3.9719,-3.9654,-3.9665,-3.9719,-3.9738,-3.9753,-3.9753,-3.9517,0,0,0,0,0,-3.9604,-3.9639,-3.9622,-3.969,-3.9695,-3.967,-3.9686,-3.9661,-3.9666,-3.9669,-3.966,-3.9668,-3.9697,-3.9717,-3.9742,-3.9827,-3.9826,-3.9869,-3.9885,-3.9897,-3.9908,-3.9954,-3.9974,-3.9765,-3.9765,-3.9765,0,0,-3.9664,-3.9659,-3.9683,-3.9709,-3.9711,-3.9748,-3.9673,-3.9715,-3.9742,-3.9675,-3.9732,-3.9727,-3.9732,-3.9806,-3.9838,-3.9805,-3.9965,-3.9908,-3.9919,-3.9922,-3.9965,-3.9985,-4.0003,-3.9771,-3.977,-3.9769,0,0,-3.9792,-3.9791,-3.9849,-3.9853,-3.9858,-3.984,-3.9854,-3.9848,-3.9842,-3.9899,-3.985,-3.9882,-3.9932,-3.9939,-3.9949,-4.0081,-4.0042,-4.009,-4.0172,-4.0217,-4.0234,-4.0248,-4.0297,-4.0315,-4.01,-4.01,-4.01,0,-3.9866,-3.992,-3.9883,-3.9929,-3.9942,-3.9883,-3.9942,-3.9947,-3.996,-3.9971,-3.9934,-3.9997,-3.9996,-4.0072,-4.0104,-4.0114,-4.0129,-4.0091,-4.0234,-4.0248,-4.0261,-4.0308,-4.0326,-4.0106,-4.0105,-4.0105,-4.0104,0,-4.0011,-4.0049,-4.0095,-4.011,-4.0128,-4.018,-4.0152,-4.0175,-4.0148,-4.0135,-4.0194,-4.0191,-4.0216,-4.0232,-4.0205,-4.0304,-4.0284,-4.0241,-4.0176,-4.0288,-4.0331,-4.0348,-4.0115,-4.0112,-4.0111,-4.0109,0,0,-4.0197,-4.0191,-4.0209,-4.0215,-4.0217,-4.0246,-4.0296,-4.032,-4.0341,-4.0352,-4.0394,-4.0438,-4.04,-4.0411,-4.0385,-4.0425,-4.0532,-4.0377,-4.0377,-4.0408,-4.0643,-4.0677,-4.0698,-4.0506,-4.0509,-4.0512,-4.0643,0,-4.0323,-4.0408,-4.0377,-4.0465,-4.0501,-4.0445,-4.0489,-4.0495,-4.0484,-4.0513,-4.05,-4.0534,-4.0479,-4.0485,-4.0522,-4.0511,-4.0579,-4.0501,-4.0546,-4.0548,-4.0548,-4.072,-4.0755,-4.0879,-4.066,-4.0662,-4.0664,0,-4.0482,-4.0501,-4.0592,-4.0589,-4.0603,-4.0642,-4.0663,-4.0691,-4.0697,-4.0686,-4.07,-4.0666,-4.0715,-4.0649,-4.0717,-4.0665,-4.0681,-4.0679,-4.0683,-4.0687,-4.0615,-4.0731,-4.0918,-4.0938,-4.069,-4.0688,-4.0686,0,-4.0611,-4.0659,-4.072,-4.0727,-4.0724,-4.0754,-4.0754,-4.0756,-4.0773,-4.0791,-4.0802,-4.0826,-4.0839,-4.0859,-4.0832,-4.0786,-4.0905,-4.0836,-4.0899,-4.09,-4.0928,-4.0927,-4.1123,-4.0936,-4.0935,-4.0935,-4.0935,0,-4.0757,-4.0816,-4.0778,-4.0816,-4.0881,-4.0844,-4.0909,-4.0903,-4.0906,-4.0942,-4.0895,-4.093,-4.0892,-4.0924,-4.0903,-4.0964,-4.097,-4.0964,-4.0958,-4.0969,-4.097,-4.0981,-4.0972,-4.094,-4.0939,-4.0938,-4.0937,0,-4.0913,-4.089,-4.0953,-4.0945,-4.0945,-4.0993,-4.0986,-4.1022,-4.1007,-4.1054,-4.1063,-4.1041,-4.1076,-4.1051,-4.1086,-4.1072,-4.1153,-4.1134,-4.1151,-4.1147,-4.1212,-4.1207,-4.1423,-4.145,-4.1244,-4.1246,-4.1247,0,-4.1008,-4.1052,-4.105,-4.1071,-4.1074,-4.1108,-4.1126,-4.1092,-4.1112,-4.1123,-4.1158,-4.1189,-4.1212,-4.1271,-4.1259,-4.1285,-4.1268,-4.1342,-4.1272,-4.1282,-4.1272,-4.127,-4.1275,-4.1356,-4.1359,-4.1361,-4.1362,0,-4.1181,-4.1168,-4.1195,-4.1219,-4.1242,-4.1259,-4.1272,-4.1292,-4.1257,-4.1283,-4.1318,-4.1337,-4.1373,-4.1405,-4.1427,-4.1427,-4.1391,-4.1384,-4.1401,-4.1414,-4.1423,-4.1421,-4.1192,-4.138,-4.1378,-4.1377,-4.1376,-4.1375,-4.1311,-4.1348,-4.1353,-4.1385,-4.1392,-4.1405,-4.1439,-4.1429,-4.1458,-4.1485,-4.1463,-4.1506,-4.1512,-4.1538,-4.1543,-4.1577,-4.1547,-4.157,-4.1576,-4.1583,-4.1594,-4.1416,-4.1581,-4.158,-4.158,-4.1579,-4.1579,0,-4.1483,-4.1483,-4.1514,-4.1534,-4.156,-4.1522,-4.1535,-4.1559,-4.1598,-4.1606,-4.1631,-4.1673,-4.1704,-4.1694,-4.1722,-4.1751,-4.1735,-4.176,-4.1759,-4.176,-4.1618,-4.1602,-4.1773,-4.1773,-4.1773,-4.1773,-4.1773,-4.1773,-4.1576,-4.1638,-4.1625,-4.169,-4.169,-4.1732,-4.1743,-4.1756,-4.1763,-4.1812,-4.1838,-4.1831,-4.1833,-4.1861,-4.1888,-4.1884,-4.1898,-4.193,-4.1921,-4.1788,-4.1769,-4.1751,-4.1736,-4.1933,-4.1933,-4.206,-4.2061,-4.2062]},{"header":{"parameterUnit":"m.s-1","parameterCategory":1,"la1":30.2991,"la2":30.254,"lo1":-89.0895,"lo2":-89.0444,"dy":0.0017,"dx":0.0017,"nx":28,"ny":28,"refTime":"2023-09-30T21:00:00:Z","depth":0,"parameterNumber":3,"parameterNumberName":"V-component_of_WINDS"},"data":[0,0,0,0,0,0,0,0,0,0,0,0,0,0,0,0,0,0,0,0,0,0,0,0,0,0,0,0,0,0,0,0,0,0,0,0,0,0,0,0,0,0,0,0,0,0,0,0,0,0,0,0,0,0,0,0,0,0,-3.0795,-3.0795,0,-3.0795,-3.0795,-3.0795,-3.0744,-3.0742,-3.0741,-3.074,-3.074,-3.0741,-3.0743,0,0,0,0,0,0,0,0,0,0,0,0,0,-3.0749,-3.075,-3.0795,-3.0795,-3.0795,-3.0795,-3.0795,-3.0795,-3.0744,-3.0742,-3.0741,-3.0739,-3.074,-3.0741,-3.0743,0,0,0,0,0,0,0,0,0,0,0,0,0,-3.0761,-3.0751,-3.0795,-3.0769,-3.0767,-3.0795,-3.0795,-3.0795,-3.0744,-3.0742,-3.074,-3.0738,-3.0739,-3.0741,-3.0743,-3.0796,0,0,-3.0749,-3.075,0,0,0,0,0,0,0,0,-3.0761,-3.0763,-3.0773,-3.0771,-3.0769,-3.0767,-3.0779,-3.0795,-3.0745,-3.0753,-3.074,-3.0737,-3.0751,-3.0752,-3.0756,-3.0796,-3.0796,-3.0749,-3.075,-3.0751,-3.0751,0,0,0,0,0,0,0,-3.076,-3.0763,-3.0795,-3.0773,-3.0771,-3.0758,-3.0757,-3.0782,-3.0763,-3.0752,-3.0748,-3.0749,-3.0749,-3.0754,-3.0756,-3.0796,-3.0749,-3.0751,-3.0752,-3.0752,-3.0878,-3.088,0,0,0,0,0,0,-3.0763,-3.0762,-3.0795,-3.0795,-3.076,-3.076,-3.0759,-3.077,-3.0763,-3.076,-3.0751,-3.0747,-3.0752,-3.0754,-3.0756,-3.0816,-3.0751,-3.0753,-3.0754,-3.0875,-3.0878,-3.088,0,0,0,0,0,0,-3.0762,-3.0766,-3.0795,-3.0778,-3.078,-3.0763,-3.0775,-3.0771,-3.0776,-3.0762,-3.0758,-3.076,-3.0751,-3.0753,-3.0786,-3.0816,-3.0754,-3.0755,-3.0873,-3.0876,-3.0879,-3.0939,0,0,0,0,0,0,-3.0761,-3.0766,-3.0786,-3.0779,-3.0782,-3.0826,-3.0777,-3.0772,-3.078,-3.0774,-3.0769,-3.0767,-3.0749,-3.0783,-3.0788,-3.0817,-3.0757,-3.087,-3.0874,-3.0878,-3.0934,-3.0944,-3.0952,0,0,0,0,0,-3.0759,-3.0803,-3.0787,-3.0792,-3.0806,-3.0828,-3.0829,-3.0808,-3.0782,-3.0802,-3.0793,-3.0767,-3.0812,-3.0787,-3.0792,-3.0822,-3.0868,-3.0873,-3.0878,-3.093,-3.0942,-3.0952,0,0,0,0,0,0,-3.0815,-3.0802,-3.0784,-3.0827,-3.0829,-3.0819,-3.0843,-3.0822,-3.0831,-3.0826,-3.0799,-3.0798,-3.0836,-3.0832,-3.0805,-3.0872,-3.0835,-3.0841,-3.0874,-3.0885,-3.0893,-3.0893,-3.0758,0,0,0,0,0,-3.0832,-3.0851,-3.0838,-3.0877,-3.0879,-3.0861,-3.087,-3.0853,-3.0854,-3.0855,-3.0848,-3.085,-3.0864,-3.0874,-3.0886,-3.0933,-3.0931,-3.0957,-3.0966,-3.0973,-3.0979,-3.1003,-3.1013,-3.0896,-3.0896,-3.0896,0,0,-3.0868,-3.0863,-3.0877,-3.0888,-3.0888,-3.0907,-3.0862,-3.0885,-3.0899,-3.0858,-3.0889,-3.0884,-3.0884,-3.0924,-3.0941,-3.0922,-3.101,-3.0979,-3.0985,-3.0987,-3.1009,-3.102,-3.103,-3.09,-3.0899,-3.0899,0,0,-3.0944,-3.0942,-3.0974,-3.0974,-3.0974,-3.0961,-3.0969,-3.0962,-3.0957,-3.0988,-3.0957,-3.0973,-3.0999,-3.1,-3.1004,-3.1079,-3.1055,-3.1084,-3.113,-3.1154,-3.1163,-3.1171,-3.1198,-3.1208,-3.1089,-3.1089,-3.109,0,-3.0989,-3.1017,-3.0993,-3.1018,-3.1023,-3.0987,-3.1019,-3.102,-3.1024,-3.1029,-3.1007,-3.1038,-3.1036,-3.1075,-3.1093,-3.1098,-3.1106,-3.1084,-3.1164,-3.1172,-3.1179,-3.1204,-3.1214,-3.1093,-3.1092,-3.1092,-3.1092,0,-3.1072,-3.1092,-3.1118,-3.1122,-3.113,-3.1159,-3.1139,-3.115,-3.1133,-3.1123,-3.1154,-3.1149,-3.116,-3.1168,-3.1152,-3.1205,-3.1194,-3.1169,-3.1131,-3.1194,-3.1217,-3.1226,-3.1098,-3.1097,-3.1096,-3.1095,0,0,-3.1183,-3.1173,-3.1183,-3.1184,-3.1181,-3.1196,-3.1222,-3.1232,-3.1242,-3.1246,-3.1267,-3.1289,-3.1265,-3.127,-3.1253,-3.1274,-3.1333,-3.1246,-3.1246,-3.1262,-3.1391,-3.141,-3.1422,-3.1317,-3.1319,-3.132,-3.1391,0,-3.1256,-3.13,-3.1279,-3.1326,-3.1344,-3.1309,-3.1331,-3.1331,-3.1323,-3.1336,-3.1326,-3.1342,-3.131,-3.1312,-3.1332,-3.1322,-3.1359,-3.1316,-3.1336,-3.1337,-3.1338,-3.1434,-3.1454,-3.1521,-3.14,-3.1402,-3.1403,0,-3.1347,-3.1354,-3.1403,-3.1395,-3.1402,-3.1422,-3.143,-3.1443,-3.1442,-3.1434,-3.1439,-3.1417,-3.1442,-3.1404,-3.1438,-3.1409,-3.1416,-3.1413,-3.1415,-3.1416,-3.1374,-3.1438,-3.1542,-3.1553,-3.1417,-3.1416,-3.1415,0,-3.1424,-3.1445,-3.1476,-3.1478,-3.147,-3.1486,-3.1483,-3.148,-3.1487,-3.1494,-3.1498,-3.1507,-3.1512,-3.152,-3.1501,-3.1475,-3.1537,-3.1498,-3.1531,-3.1532,-3.1546,-3.1545,-3.1653,-3.1551,-3.155,-3.155,-3.155,0,-3.1507,-3.1538,-3.151,-3.153,-3.1563,-3.1538,-3.1572,-3.1565,-3.1563,-3.158,-3.1551,-3.1567,-3.1541,-3.1556,-3.1541,-3.1571,-3.1573,-3.1567,-3.1563,-3.157,-3.1571,-3.1574,-3.1569,-3.1553,-3.1552,-3.1552,-3.1551,0,-3.1598,-3.1581,-3.1613,-3.1602,-3.16,-3.1625,-3.1616,-3.1633,-3.1622,-3.1644,-3.1648,-3.163,-3.1645,-3.1627,-3.1641,-3.1631,-3.1671,-3.166,-3.1672,-3.1668,-3.1703,-3.17,-3.1817,-3.1831,-3.1719,-3.172,-3.1721,0,-3.1653,-3.1676,-3.1667,-3.1676,-3.1675,-3.1691,-3.1698,-3.1674,-3.1683,-3.1683,-3.17,-3.1713,-3.1721,-3.1747,-3.1736,-3.1746,-3.1734,-3.1775,-3.1736,-3.1742,-3.1735,-3.1734,-3.1736,-3.1783,-3.1784,-3.1785,-3.1786,0,-3.1752,-3.1742,-3.1753,-3.1761,-3.177,-3.1775,-3.1778,-3.1787,-3.1762,-3.1773,-3.1788,-3.1795,-3.1809,-3.1821,-3.1828,-3.1825,-3.1802,-3.1798,-3.1807,-3.1814,-3.182,-3.1817,-3.1693,-3.1796,-3.1795,-3.1794,-3.1794,-3.1793,-3.1826,-3.1844,-3.1841,-3.1854,-3.1853,-3.1857,-3.1872,-3.1862,-3.1874,-3.1883,-3.1868,-3.1887,-3.1885,-3.1892,-3.1891,-3.1905,-3.1888,-3.19,-3.1903,-3.1906,-3.1911,-3.1817,-3.1907,-3.1906,-3.1906,-3.1906,-3.1906,0,-3.1923,-3.1918,-3.1931,-3.1935,-3.1946,-3.1922,-3.1924,-3.1934,-3.1951,-3.1951,-3.196,-3.1976,-3.1988,-3.1978,-3.1987,-3.2001,-3.199,-3.2004,-3.2003,-3.2002,-3.1927,-3.1918,-3.2012,-3.2012,-3.2012,-3.2012,-3.2012,-3.2012,-3.1974,-3.2004,-3.1993,-3.2022,-3.2017,-3.2035,-3.2038,-3.2041,-3.204,-3.2061,-3.207,-3.2063,-3.2058,-3.2067,-3.2077,-3.2074,-3.2079,-3.2096,-3.2089,-3.2018,-3.2008,-3.1998,-3.199,-3.2098,-3.2098,-3.2164,-3.2164,-3.2165]}]]